Volver al catálogo

THOR ABLESTAR DEB

ActivoLEO
NORAD 254·DEBRIS·🇺🇸 United States

Lanzado Jun 29, 1961 desde Cape Canaveral Space Force Station

Loading…

Próximos Pases (próximas 24 horas)

TLE

ActualizadoSource: Space-Track

Época: Sep 13, 2026, 12:43 UTC

1 00254U 61015CF  26256.53054480  .00000984  00000-0  25575-3 0  9992
2 00254  66.7723  39.8057 0058088   2.9985 357.1462 14.53056338386517

Sigue THOR ABLESTAR DEB en tiempo real con AllMySat

Download on the App Store